Погода в Караганде

Казахстан     49°48′27″N   73°05′18″E
темп.,
°C
ветер,
м/с
пор.,
м/с
влажн.,
%
обл.,
%
осадки,
мм/ч
давл.,
гПа
погр.,
м
26 февраля, пт
пт2600:00−25зюз81494100 0.2 1036628
03:00−27зюз61296100 0.1 1038354
06:00−29юз61196100 0.1 1040258
09:00−29юз61095100 0.0 1041307
12:00−25юз6993100 0.0 1041426
15:00−23юз6990100 0.0 1039508
18:00−24юз369497 0.0 1039109
21:00−27ююз449678 0.0 104154
27 февраля, сб
сб2700:00−27ююз349781 0.0 104050
03:00−27ююз3498100 0.0 103939
06:00−25ю339699 0.0 103843
09:00−22ю3593100 0.0 1037123
12:00−17ююз4687100 0.0 1035337
15:00−14ююз578181 0.0 1033575
18:00−16ю348774 0.0 103341
21:00−20ююв458431 0.0 103571
28 февраля, вс
вс2800:00−17ююв5107965 0.0 1033220
03:00−15ю61278100 0.0 1031300
06:00−13ю71490100 0.1 1028405
09:00−10ю101891100 0.4 1025665
12:00−7ююз121893100 1.0 1022692
15:00−3ююз111894100 1.2 1020714
18:00−2ююз111895100 2.8 1018809
21:00−1ююз101893100 0.9 1018818
1 марта, пн
пн100:000юз111697100 2.4 1018816
03:000юз101697100 1.9 1018883
06:00−1юз101693100 2.4 1018741
09:00−1юз91596100 0.8 1019690
12:000юз101597100 1.2 1019668
15:000юз91597100 0.6 1019690
18:00−1юз71387100 1.3 1019645
21:00−2юз61384100 0.0 1020507
2 марта, вт
вт200:00−2ююз61384100 0.2 1019462
03:00−4юз51187100 0.1 1018420
06:00−4юз61188100 0.2 1017353
09:00−3юз71396100 1.0 1016596
12:00−2зюз81295100 1.9 1016660
15:00−2з81090100 0.3 1016885
18:00−6з6890100 0.3 1018615
21:00−8з4795100 0.1 1021261